Main page
METAR-TAF:

METAR-TAF

Airports :

Algeciras, Spain

Algeciras Heliport

latitude: 36-07-44N, longitude: 05-26-28W, elevation: 30 m

Current weather observation

The report was made 36 minutes ago, at 15:00 UTC
Wind 6 kt from the South/Southeast, varying between East/Southeast and South
Temperature 18°C
Humidity 68%
Pressure 1026 hPa
Visibility 10 km or more
no clouds below 1500 m and no cumulonimbus

METAR: LEAG 231500Z AUTO 15006KT 120V180 CAVOK 18/12 Q1026

Time: 16:36 (15:36 UTC)


TAF: missing

Weather observations and forecasts of more than 4000 airports (METAR and TAF reports).

The available stations are represented by yellow and red dots on the map.

Hover mouse over dot to see the name of the station.

Then click to see weather observations and forecasts.

To change the map : click on the green buttons with a black cross to zoom in, on the green button with a dash to zoom out, or on the green arrows for adjacent maps.


METAR-TAF: